Flag for France Weather past 2 weeks in Boulogne-Billancourt, France

Now
57 °F

Partly sunny.


Feels Like: 55 °F
Forecast: 50 / 55 °F
Wind: 12 mph from West

Location: Paris-Orly

Current Time: Mar 28, 2015 at 2:08:41 PM

Latest Report: Mar 28, 2015 at 1:30 PM


Visibility: N/A

Pressure: 30.09 "Hg

Humidity: 82%

Dew point: 52 °F

Location of Boulogne-BillancourtLocation

Historic Weather in Boulogne-Billancourt — Graph

°F

Boulogne-Billancourt temperature yesterday

Maximum temperature yesterday: 55 °F (at 3:30 PM)
Minimum temperature yesterday: 36 °F (at 6:30 AM)
Average temperature yesterday: 46 °F

Past Weeks' High & Low Weather Summary

 TemperatureHumidityPressure
High64 °F (Mar 17, 3:00 PM)100% (Mar 17, 6:30 AM)30.39 "Hg (Mar 17, 6:30 AM)
Low30 °F (Mar 26, 4:00 AM)28% (Mar 17, 4:00 PM)29.74 "Hg (Mar 24, 3:30 PM)
Average45 °F74%30.11 "Hg
* Reported Mar 13 1:00 PM — Mar 28 1:00 PM, Boulogne-Billancourt, Weather by CustomWeather, © 2015

Note: Actual official high and low records may vary slightly from our data, if they occured in-between our weather recording intervals... More about our weather records

Advertising

Boulogne-Billancourt weather history for previous 24 hours

 ConditionsComfort  
Time TempWeatherWind HumidityBarometerVisibility
1:00 PM
Sat, Mar 28
55 °FPartly sunny.8 mph88%30.09 "HgN/A
12:30 PM55 °FPartly sunny.9 mph88%30.09 "HgN/A
12:00 PM54 °FPartly sunny.9 mph94%30.12 "HgN/A
11:30 AM52 °FLow clouds.10 mph94%30.12 "HgN/A
11:00 AM50 °FLow clouds.7 mph100%30.12 "Hg5 mi
10:30 AM50 °FLow clouds.7 mph100%30.12 "Hg4 mi
10:00 AM48 °FDrizzle. Low clouds.6 mph100%30.12 "Hg4 mi
9:30 AM48 °FDrizzle. Low clouds.5 mph94%30.12 "Hg1 mi
9:00 AM46 °FDrizzle. Low clouds.6 mph100%30.12 "Hg2 mi
8:30 AM46 °FDrizzle. Low clouds.6 mph100%30.15 "Hg3 mi
8:00 AM46 °FDrizzle. Mostly cloudy.5 mph100%30.15 "Hg3 mi
7:30 AM46 °FDrizzle. Mostly cloudy.8 mph93%30.15 "Hg2 mi
7:00 AM45 °FDrizzle. Low clouds.8 mph100%30.15 "Hg2 mi
6:30 AM45 °FDrizzle. Low clouds.7 mph100%30.15 "Hg1 mi
6:00 AM45 °FDrizzle. Low clouds.8 mph100%30.15 "Hg2 mi
5:30 AM45 °FDrizzle. Low clouds.6 mph100%30.15 "Hg4 mi
5:00 AM45 °FDrizzle. Low clouds.6 mph100%30.15 "Hg4 mi
4:30 AM45 °FPassing clouds.6 mph100%30.15 "Hg5 mi
4:00 AM45 °FPartly cloudy.7 mph93%30.18 "HgN/A
3:30 AM45 °FPartly cloudy.6 mph93%30.18 "HgN/A
3:00 AM45 °FLight rain. Low clouds.5 mph93%30.18 "HgN/A
2:30 AM45 °FLight rain. Partly cloudy.6 mph87%30.21 "HgN/A
2:00 AM45 °FPassing clouds.5 mph87%30.21 "HgN/A
1:30 AM43 °FPassing clouds.6 mph87%30.21 "HgN/A
1:00 AM43 °FPassing clouds.5 mph87%30.24 "HgN/A
12:30 AM43 °FPassing clouds.5 mph87%30.24 "HgN/A
12:00 AM43 °FClear.6 mph87%30.24 "Hg10 mi
11:30 PM
Fri, Mar 27
43 °FClear.6 mph81%30.24 "Hg10 mi
11:00 PM43 °FClear.5 mph81%30.24 "Hg10 mi
10:30 PM45 °FClear.5 mph76%30.24 "Hg10 mi
10:00 PM45 °FClear.5 mph76%30.24 "Hg10 mi
9:30 PM45 °FClear.5 mph76%30.24 "Hg10 mi
9:00 PM45 °FClear.3 mph76%30.24 "Hg10 mi
8:30 PM45 °FClear.6 mph76%30.24 "Hg10 mi
8:00 PM48 °FClear.6 mph66%30.24 "Hg10 mi
7:30 PM48 °FPassing clouds.6 mph66%30.21 "HgN/A
7:00 PM50 °FSunny.6 mph58%30.21 "Hg10 mi
6:30 PM52 °FPartly sunny.8 mph54%30.21 "HgN/A
6:00 PM52 °FScattered clouds.8 mph54%30.21 "HgN/A
5:30 PM54 °FBroken clouds.8 mph51%30.21 "HgN/A
5:00 PM54 °FBroken clouds.3 mph51%30.21 "HgN/A
4:30 PM54 °FSunny.8 mph47%30.21 "Hg10 mi
4:00 PM54 °FPassing clouds.5 mph51%30.21 "HgN/A
3:30 PM55 °FBroken clouds.6 mph44%30.21 "HgN/A
3:00 PM54 °FBroken clouds.9 mph47%30.18 "HgN/A
2:30 PM54 °FSunny.10 mph47%30.21 "Hg10 mi
2:00 PM52 °FBroken clouds.12 mph50%30.21 "HgN/A
Weather by CustomWeather, © 2015

See weather overviewHow to use our weather pages